Regional Weather Roundup
Issued by NWS Sioux Falls, SD

Home | Current Version | Previous Version | Text Only | Print | Product List | Glossary On
Versions: 1 2 3 4 5 6 7 8 9 10 11 12 13 14 15 16 17 18 19 20 21 22 23 24 25 26 27 28 29 30 31 32 33 34 35 36 37 38 39 40 41 42 43 44 45 46 47 48 49 50
000
ASUS43 KFSD 310110
RWRFSD

WEATHER ROUNDUP FOR SE SOUTH DAKOTA/SW MINNESOTA/NW IOWA
NATIONAL WEATHER SERVICE SIOUX FALLS SD
800 PM CDT SUN AUG 30 2015

NOTE: "FAIR" INDICATES FEW OR NO CLOUDS BELOW 12,000 FEET WITH NO
SIGNIFICANT WEATHER AND OR OBSTRUCTIONS TO VISIBILITY.


SDZ038>040-050-052>070-310200-
SOUTHEAST SOUTH DAKOTA

CITY           SKY/WX    TMP DP  RH WIND       PRES   REMARKS
BROOKINGS      PTCLDY    70  63  78 S12       29.88F
CHAMBERLAIN    PTCLDY    79  67  66 SE14G20   29.75F
HURON          PTCLDY    77  69  76 S16G25    29.77F
MADISON        FAIR      68  68 100 S15G22    29.88S
MITCHELL       PTCLDY    76  67  73 SE15G22   29.82R
SIOUX FALLS    MOCLDY    70  65  84 S10       29.89F
WINNER         FAIR      87  49  26 S20G29    29.74F
YANKTON        PTCLDY    72  66  83 SE9       29.87S
$$

MNZ071-072-080-081-089-090-097-098-310200-
SOUTHWEST MINNESOTA

CITY           SKY/WX    TMP DP  RH WIND       PRES   REMARKS
FAIRMONT       CLEAR     68  61  77 S9        29.94S
JACKSON        PTCLDY    70  68  94 S10       29.95S
LUVERNE        PTCLDY    68  63  83 S6        29.92S
MARSHALL       PTCLDY    72  61  68 S12       29.88S
MONTEVIDEO     PTCLDY    73  64  73 SW9G16    29.86F
PIPESTONE      PTCLDY    66  63  88 S9        29.91S
REDWOOD FALLS  PTCLDY    72  67  84 S9        29.88S
TRACY          MOCLDY    72  66  82 S12       29.88F
WINDOM         PTCLDY    72  64  78 S7        29.93R
WORTHINGTON    PTCLDY    68  63  83 S8        29.93S
$$

IAZ001>003-012>014-020>022-031-032-NEZ013-014-SDZ071-310200-
NORTHWEST IOWA

CITY           SKY/WX    TMP DP  RH WIND       PRES   REMARKS
CHEROKEE       PTCLDY    68  67  97 S3        29.95S
DENISON        PTCLDY    70  66  88 MISG      29.95S
ESTHERVILLE    PTCLDY    67  65  93 S8        29.95S
LE MARS        PTCLDY    68  66  94 S9        29.94S
ORANGE CITY    PTCLDY    68  66  94 S5        29.94S
SHELDON        PTCLDY    68  66  94 S7        29.92F FOG
SIOUX CITY     NOT AVBL
SPENCER        FOG       68  64  87 S7        29.95S VSB 1/2
STORM LAKE     PTCLDY    66  66 100 S7        29.97S FOG
$$

ABBREVIATIONS USED IN REMARKS
   TC - TEMPERATURE IN CELSIUS
  WCI - WIND CHILL INDEX
   HX - HEAT INDEX
  VSB - VISIBILITY



USA.gov is the U.S. government's official web portal to all federal, state and local government web resources and services.